This demonstration page uses our WeatherBlox Daily Observations layout. Learn more.

Left ArrowRight Arrow

34.02893, -84.19858

Hourly Observations for February 18, 2022

Temp ( °F °C ) Dew Point ( °F °C ) Humidity (%) Winds ( mph kmh ) Pressure ( in mb ) Visibility ( mi km ) Precip ( " mm )
12:48 am 00:48 Cloudy with Rain 61 16 61 16 100 100 W 7 11 29.88 1012 3 4 0.17 4.32
12:53 am 00:53 Cloudy with Light Rain 61 16.1 60 15.6 97 97 WSW 8 13 29.87 1011 4 6 0.18 4.57
1:10 am 01:10 Cloudy with Light Rain 61 16.1 60 15.6 97 97 WSW 8 13 29.88 1012 6 10 0.03 0.76
1:38 am 01:38 Cloudy with Light Rain 61 16.1 60 15.6 97 97 WSW 8 13 29.88 1012 10 16 0.05 1.27
1:53 am 01:53 Cloudy 61 16.1 60 15.6 97 97 W 6 9 29.86 1011 10 16 0.05 1.27
2:10 am 02:10 Cloudy 61 16.1 59 15 93 93 W 7 11 29.89 1012 10 16 0.01 0.25
2:18 am 02:18 Cloudy 60 15.6 59 15 96 96 WSW 8 13 29.89 1012 10 16 0.01 0.25
2:22 am 02:22 Cloudy 60 15.6 59 15 96 96 WSW 6 9 29.89 1012 10 16 0.01 0.25
2:40 am 02:40 Cloudy 60 15.6 59 15 96 96 W 8 13 29.88 1012 10 16 0.01 0.25
2:53 am 02:53 Cloudy 60 15.6 58 14.4 93 93 W 10 17 29.86 1011 10 16 0.01 0.25
3:00 am 03:00 Cloudy 60 15.6 58 14.4 93 93 W 10 17 29.87 1012 10 16 0.00 0.00
3:16 am 03:16 Cloudy 60 15.6 58 14.4 93 93 W 7 11 29.87 1012 10 16 0.00 0.00
3:23 am 03:23 Cloudy 60 15.6 58 14.4 93 93 W 9 15 29.88 1012 10 16 0.00 0.00
3:36 am 03:36 Cloudy 59 15 56 13.3 90 90 W 13 20 29.88 1012 10 16 0.00 0.00
3:53 am 03:53 Cloudy 58 14.4 55 12.8 90 90 WNW 13 20 29.88 1012 10 16 0.00 0.00
4:00 am 04:00 Cloudy 57 13.9 53 11.7 87 87 W 16 26 29.90 1012 10 16 0.00 0.00
4:10 am 04:10 Cloudy 55 12.8 52 11.1 90 90 W 17 28 29.91 1013 10 16 0.00 0.00
4:18 am 04:18 Cloudy 54 12.2 50 10 87 87 W 13 20 29.92 1013 10 16 0.00 0.00
4:53 am 04:53 Cloudy 52 11.1 48 8.9 86 86 W 9 15 29.93 1013 10 16 0.00 0.00
5:53 am 05:53 Cloudy 49 9.4 45 7.2 86 86 WNW 13 20 29.95 1014 10 16 0.00 0.00
6:16 am 06:16 Cloudy 48 8.9 44 6.7 86 86 WNW 16 26 29.99 1015 10 16 0.00 0.00
6:27 am 06:27 Cloudy 47 8.3 44 6.7 90 90 NW 14 22 30.00 1016 10 16 0.00 0.00
6:53 am 06:53 Cloudy 46 7.8 42 5.6 86 86 WNW 16 26 29.99 1016 10 16 0.00 0.00
7:53 am 07:53 Cloudy 42 5.6 38 3.3 85 85 WNW 15 24 30.04 1017 10 16 0.00 0.00
8:36 am 08:36 Cloudy 41 5 36 2.2 82 82 NW 16 26 30.10 1019 10 16 0.00 0.00
8:53 am 08:53 Cloudy 40 4.4 35 1.7 83 83 NW 13 20 30.08 1019 10 16 0.00 0.00
9:53 am 09:53 Cloudy 38 3.3 31 -0.6 76 76 WNW 15 24 30.12 1020 10 16 0.00 0.00
10:53 am 10:53 Mostly Cloudy 39 3.9 30 -1.1 70 70 NW 18 30 30.15 1021 10 16 0.00 0.00
11:53 am 11:53 Partly Cloudy 41 5 31 -0.6 67 67 WNW 15 24 30.14 1021 10 16 0.00 0.00
12:53 pm 12:53 Sunny 44 6.7 32 0 63 63 NW 16 26 30.14 1021 10 16 0.00 0.00
1:53 pm 13:53 Sunny 42 5.6 31 -0.6 65 65 NW 13 20 30.13 1020 10 16 0.00 0.00
2:53 pm 14:53 Sunny 43 6.1 31 -0.6 63 63 WNW 13 20 30.12 1020 10 16 0.00 0.00
3:53 pm 15:53 Sunny 43 6.1 30 -1.1 60 60 WNW 17 28 30.13 1020 10 16 0.00 0.00
4:53 pm 16:53 Sunny 42 5.6 29 -1.7 60 60 NNW 15 24 30.14 1021 10 16 0.00 0.00
5:53 pm 17:53 Sunny 39 3.9 28 -2.2 65 65 WNW 12 19 30.16 1022 10 16 0.00 0.00
6:53 pm 18:53 Clear 36 2.2 28 -2.2 73 73 W 9 15 30.19 1022 10 16 0.00 0.00
7:53 pm 19:53 Clear 35 1.7 27 -2.8 72 72 NW 10 17 30.22 1023 10 16 0.00 0.00
8:53 pm 20:53 Clear 34 1.1 25 -3.9 70 70 NW 13 20 30.23 1024 10 16 0.00 0.00
9:53 pm 21:53 Clear 33 0.6 24 -4.4 70 70 NNW 10 17 30.22 1024 10 16 0.00 0.00
10:53 pm 22:53 Clear 32 0 23 -5 69 69 NW 10 17 30.22 1023 10 16 0.00 0.00
11:53 pm 23:53 Clear 31 -0.6 23 -5 72 72 WNW 8 13 30.22 1023 10 16 0.00 0.00

Powered by AerisWeather